Home   Weather   Maple Ridge   Past weeks

Flag for Canada Past Weather in Maple Ridge, British Columbia, Canada — Yesterday and Last 2 Weeks

Now
51 °F

Cool.


Feels Like: 51 °F
Forecast: 48 / 54 °F
Wind: 2 mph from Southwest

Location: P. Meadows Coastal Station

Current Time: Apr 22, 2017 at 10:51:06 pm

Latest Report: Apr 22, 2017 at 10:00 pm


Visibility: N/A

Pressure: 29.90 "Hg

Humidity: 93%

Dew Point: 49 °F

Location of Maple RidgeLocation

Past Weather in Maple Ridge — Graph

°F

Maple Ridge Temperature Yesterday

Maximum temperature yesterday: 68 °F (at 6:00 pm)
Minimum temperature yesterday: 42 °F (at 3:00 am)
Average temperature yesterday: 55 °F

High & Low Weather Summary for the Past Weeks

 TemperatureHumidityPressure
High68 °F (Apr 21, 6:00 pm)98% (Apr 11, 1:00 am)30.43 "Hg (Apr 11, 1:00 am)
Low36 °F (Apr 16, 5:00 am)26% (Apr 21, 6:00 pm)29.51 "Hg (Apr 7, 9:00 pm)
Average49 °F76%29.99 "Hg
* Reported Apr 7 9:00 pm — Apr 22 9:00 pm, Maple Ridge, Weather by CustomWeather, © 2017

Note: Actual official high and low records may vary slightly from our data, if they occured in-between our weather recording intervals... More about our weather records

Advertising

Maple Ridge Weather History for the Previous 24 Hours

Scroll right to see more
 ConditionsComfort  
Time TempWeatherWind HumidityBarometerVisibility
9:00 pm
Sat, Apr 22
50 °FCool.2 mph94%29.90 "HgN/A
8:00 pm51 °FCool.2 mph92%29.89 "HgN/A
7:00 pm52 °FCool.3 mph92%29.88 "HgN/A
6:00 pm53 °FCool.5 mph91%29.86 "HgN/A
5:00 pm53 °FCool.6 mph86%29.86 "HgN/A
4:00 pm55 °FCool.6 mph79%29.86 "HgN/A
3:00 pm55 °FCool.5 mph80%29.86 "HgN/A
2:00 pm55 °FCool.2 mph74%29.86 "HgN/A
1:00 pm62 °FRefreshingly cool.5 mph42%29.80 "HgN/A
11:00 am60 °FRefreshingly cool.1 mph45%29.75 "HgN/A
10:00 am60 °FRefreshingly cool.2 mph52%29.76 "HgN/A
9:00 am58 °FRefreshingly cool.2 mph55%29.76 "HgN/A
8:00 am54 °FCool.No wind65%29.79 "HgN/A
7:00 am52 °FCool.2 mph61%29.82 "HgN/A
6:00 am48 °FCool.2 mph78%29.85 "HgN/A
5:00 am49 °FCool.5 mph74%29.88 "HgN/A
4:00 am47 °FCool.1 mph84%29.92 "HgN/A
3:00 am50 °FCool.1 mph70%29.94 "HgN/A
2:00 am49 °FCool.No wind78%29.97 "HgN/A
1:00 am52 °FCool.1 mph65%30.00 "HgN/A
12:00 am53 °FCool.1 mph64%30.03 "HgN/A
11:00 pm
Fri, Apr 21
54 °FCool.1 mph62%30.05 "HgN/A
10:00 pm57 °FRefreshingly cool.6 mph51%30.07 "HgN/A
Weather by CustomWeather, © 2017

See weather overviewHow to use our weather pages